Location: Bridgewater Hill Observatory
(43.5992°N, 72.6989°W)
Time: 02:47:05
(UTC-04:00)

Daily predictions for brighter satellites

Satellite Brightness Start Highest point End
(mag) Time Altitude Azimuth Time Altitude Azimuth Time Altitude Azimuth
SL-16 R/B 4.5 00:06:41 11° E 00:06:41 11° E 00:07:22 10° ENE
Cosmos 2322 Rocket 4.3 00:12:46 13° E 00:12:46 13° E 00:14:28 10° ENE
Cosmos 921 Rocket 4.0 00:15:15 40° NE 00:15:15 40° NE 00:18:07 10° NNE
ALOS 2 2.9 00:14:39 63° N 00:14:39 63° N 00:18:25 10° N
Cosmos 2082 4.0 00:08:52 10° NNW 00:14:27 54° WSW 00:14:40 54° WSW
Cosmos 2278 4.0 00:17:39 49° WSW 00:18:56 61° WNW 00:24:36 10° NNE
CZ-2C R/B 2.5 00:21:31 10° N 00:26:43 75° WNW 00:26:55 74° W
Genesis I 4.4 00:22:53 10° NNW 00:25:47 42° N 00:25:47 42° N
Cosmos 1371 Rocket 4.5 00:26:31 50° W 00:27:12 53° WNW 00:32:18 10° NNE
H-2A R/B 4.5 00:27:42 12° W 00:27:42 12° W 00:29:06 10° WNW
Cosmos 1300 Rocket 4.2 00:28:19 53° NW 00:28:19 53° NW 00:31:58 10° N
Cosmos 1461 4.1 00:26:00 10° NNW 00:30:04 38° NE 00:30:06 38° NE
Cosmos 1190 Rocket 4.1 00:25:20 10° NNW 00:30:12 63° W 00:30:12 63° W
Mayak -0.1 00:26:41 10° NNE 00:29:34 39° NE 00:29:34 39° NE
USA 229 DEB 3.6 00:30:45 53° SW 00:32:33 85° NW 00:39:33 10° NE
USA 229 3.6 00:30:53 54° SW 00:32:40 85° NW 00:39:40 10° NE
Cosmos 1244 Rocket 4.4 00:32:10 67° SE 00:32:46 72° E 00:38:57 10° NNE
Cosmos 1656 3.9 00:32:39 53° W 00:33:28 59° WNW 00:38:57 10° NNE
Cosmos 2227 Rocket 3.4 00:32:26 10° NW 00:37:06 29° W 00:37:06 29° W
NOSS 3-1 (A) 4.2 00:39:24 36° E 00:39:24 36° E 00:44:23 10° NE
CZ-4C R/B 2.9 00:33:21 10° NW 00:40:30 81° NE 00:42:51 49° SE
Nadezhda 2 Rocket 4.3 00:41:08 69° SW 00:41:49 77° W 00:47:57 10° N
Cosmos 676 Rocket 4.0 00:36:34 10° NNW 00:41:35 80° NW 00:41:35 80° NW
Cosmos 1140 Rocket 3.5 00:39:53 10° NNW 00:44:59 71° ENE 00:44:59 71° ENE
Cosmos 2263 Rocket 3.9 00:44:10 10° N 00:48:59 27° NE 00:51:48 19° E
Nadezhda 1 Rocket 4.5 00:43:06 10° N 00:49:00 48° ENE 00:50:02 44° ESE
GP-B 3.8 00:44:44 10° N 00:48:24 50° NW 00:48:24 50° NW
Cosmos 407 Rocket 4.1 00:44:56 10° NNW 00:49:36 47° W 00:49:36 47° W
Cosmos 1741 Rocket 4.4 00:54:36 10° NNW 00:59:43 53° ENE 01:00:03 52° E
ISS -0.8 00:56:47 10° NW 00:57:24 14° NW 00:57:24 14° NW
BREEZE-M DEB (TANK) 3.6 00:45:09 10° WSW 01:00:31 89° SSE 01:04:29 10° ENE
Cosmos 2360 Rocket 4.3 01:01:37 13° E 01:01:37 13° E 01:04:11 10° ENE
Cosmos 1980 Rocket 2.0 01:01:51 83° WSW 01:02:00 85° WNW 01:07:40 10° NNE
Cosmos 1544 Rocket 4.3 01:06:49 48° NE 01:06:49 48° NE 01:10:17 10° NNE
CZ-4B R/B 3.4 01:12:24 30° N 01:12:24 30° N 01:14:17 10° N
Meteor 1-12 Rocket 4.2 01:13:54 69° ESE 01:14:08 70° E 01:19:50 10° NNE
Cosmos 1743 4.4 01:15:55 30° NE 01:15:55 30° NE 01:18:16 10° NNE
BREEZE M DEB (TANK) 4.0 01:03:40 10° SW 01:17:20 54° ESE 01:20:06 10° ENE
NOSS 3-1 (C) 3.2 01:20:00 71° SW 01:20:41 84° NW 01:27:16 10° NE
Cosmos 1455 Rocket 3.6 01:22:47 55° NNE 01:22:47 55° NNE 01:26:17 10° NNE
Cosmos 1697 Rocket 3.9 01:26:53 28° W 01:28:32 33° NW 01:33:37 10° N
H-2A R/B 3.7 01:25:43 10° NNE 01:28:25 35° NE 01:28:25 35° NE
Cosmos 1745 Rocket 3.8 01:29:34 70° SW 01:30:16 79° W 01:36:27 10° N
Cosmos 2297 Rocket 4.4 01:28:31 10° WNW 01:30:09 12° W 01:30:09 12° W
Lacrosse 5 rocket 4.3 01:35:36 10° NNW 01:37:55 15° NNE 01:40:18 10° NE
SL-16 R/B 2.0 01:48:33 77° SSE 01:48:55 82° ESE 01:54:37 10° NNE
Cosmos 1437 Rocket 3.5 01:53:45 54° NE 01:53:45 54° NE 01:57:05 10° NNE
Cosmos 2322 Rocket 2.0 01:54:35 75° SSW 01:55:06 89° WNW 02:00:52 10° NNE
USA 234 3.8 01:50:14 10° ENE 01:56:16 38° SE 01:56:49 38° SE
Cosmos 1602 Rocket 3.8 01:51:52 10° N 01:55:46 68° N 01:55:46 68° N
ADEOS Rocket 3.9 01:52:35 10° NNE 01:58:03 34° E 01:59:35 29° SE
Cosmos 1666 3.6 02:04:46 46° NNW 02:04:46 46° NNW 02:07:39 10° N
Meteor 1-21 4.0 01:59:02 10° NNW 02:04:39 82° W 02:05:12 72° SSW
Mayak 1.1 02:03:44 10° NNW 02:06:00 14° WNW 02:06:13 14° WNW
USA 81 4.2 02:03:55 10° NNW 02:09:06 57° W 02:09:11 57° W
Cosmos 1110 Rocket 3.8 02:09:07 77° SSE 02:09:25 82° ESE 02:14:37 10° NNE
CZ-2D R/B 4.0 02:08:29 10° NE 02:12:42 22° E 02:14:55 18° SE
Cosmos 44 Rocket 3.1 02:09:17 10° NW 02:13:48 80° WNW 02:13:48 80° WNW
NPP 4.2 02:13:35 10° NNE 02:18:49 49° E 02:20:00 42° SE
PSLV R/B 4.0 02:16:23 10° N 02:21:04 55° WNW 02:21:15 55° W
ATLAS 2AS CENTAUR R/B 3.5 02:21:12 37° SSE 02:23:49 50° ESE 02:31:35 10° NE
CZ-4C R/B 4.1 02:22:53 10° WNW 02:27:59 25° WSW 02:27:59 25° WSW
NOSS 3-1 (A) 4.2 02:26:49 29° W 02:29:22 44° NW 02:35:45 10° NNE
Cosmos 1606 Rocket 4.0 02:29:33 51° ESE 02:29:59 53° E 02:34:21 10° NNE
Uosat 12 SS-18 rocket 4.3 02:31:43 69° SSW 02:32:21 83° ESE 02:38:07 10° NE
Cosmos 2263 Rocket 2.3 02:27:42 10° NW 02:33:12 51° WSW 02:33:26 51° WSW
NOSS 2-3 (E) 3.8 02:35:19 62° SSE 02:35:53 69° ESE 02:41:21 10° NE
SL-08 ROCKET BODY 4.3 02:35:35 51° SSW 02:37:17 86° W 02:43:22 10° N
Cosmos 1709 Rocket 4.4 02:39:20 40° WSW 02:40:44 47° WNW 02:46:37 10° N
PSLV R/B 4.1 02:41:23 61° WNW 02:41:23 61° WNW 02:45:16 10° NNW
ARIANE 5 R/B 3.8 02:38:55 10° NNE 02:43:35 34° E 02:45:51 24° SE
Cosmos 2360 Rocket 2.1 02:43:23 54° SSW 02:44:47 87° WNW 02:50:28 10° NNE
ATLAS 3B R/B 3.3 02:39:34 10° NNW 02:46:13 54° NE 02:52:35 10° SE
Cosmos 2219 Rocket 3.7 02:44:12 19° SE 02:46:46 27° ESE 02:51:27 10° NE
Cosmos 1980 Rocket 4.4 02:43:36 10° W 02:46:53 16° NW 02:50:18 10° N
Cosmos 1331 Rocket 4.3 02:46:22 46° WSW 02:47:21 53° WNW 02:52:26 10° NNE
Meteor 1-4 Rocket 2.7 02:48:42 67° N 02:48:42 67° N 02:51:53 10° N
Cosmos 1271 Rocket 4.2 02:48:32 27° ESE 02:49:34 30° E 02:53:05 10° NNE
Meteor 2-13 Rocket 4.4 02:49:39 45° SSW 02:51:38 77° W 02:57:50 10° N
Cosmos 1825 Rocket 3.4 02:47:26 10° NNW 02:51:49 67° W 02:52:01 66° WSW
Cosmos 1844 Rocket 3.4 02:46:30 10° NNW 02:52:04 53° ENE 02:57:36 10° SE
Cosmos 2228 3.6 02:52:45 40° SE 02:53:47 50° E 02:57:57 10° NNE
Cosmos 1758 Rocket 3.4 02:50:41 10° N 02:55:02 85° W 02:55:36 67° S
Cosmos 2237 Rocket 4.4 02:52:23 10° SE 02:55:55 17° E 02:59:27 10° ENE
Cosmos 44 4.2 02:52:17 10° NW 02:54:53 29° WNW 02:54:53 29° WNW
Cosmos 1340 Rocket 4.4 02:53:24 10° N 02:57:00 32° ENE 02:59:25 17° SE
SL-8 R/B 3.7 02:56:07 50° WSW 02:57:22 82° NNW 03:02:14 10° ENE
COSMOS 2428 3.0 02:59:19 36° S 03:01:31 59° ESE 03:07:10 10° NNE
Cosmos 1932 4.4 02:55:13 10° NW 03:01:47 89° WSW 03:08:11 10° SSE
Cosmos 972 Rocket 4.3 03:02:04 36° SSE 03:03:47 55° ESE 03:08:44 10° NNE
Helios 1A Rocket 3.6 03:00:36 10° N 03:04:22 38° WNW 03:04:37 38° W
H-2A R/B 4.5 03:02:26 10° NNW 03:04:43 15° WNW 03:05:02 15° WNW
NOSS 2-3 (C) 4.1 03:07:38 43° WSW 03:09:10 68° NW 03:14:48 10° NNE
CBERS-1 4.1 03:04:12 10° N 03:09:17 65° WNW 03:10:52 42° SW
Iridium 4 Rocket 3.7 03:07:50 34° S 03:10:28 89° E 03:15:59 10° N
Aureole 2 Rocket 3.9 03:09:31 29° SE 03:10:47 36° ESE 03:14:29 10° NE
Cosmos 1486 Rocket 4.3 03:09:19 10° NNW 03:14:24 48° WSW 03:15:33 41° SW
Cosmos 1378 3.0 03:11:56 10° N 03:15:42 86° E 03:16:27 55° SSE
USA 238 DEB 4.0 03:10:38 10° NW 03:17:44 71° NE 03:24:52 10° SE
USA 238 4.1 03:10:45 10° NNW 03:17:50 70° NE 03:24:58 10° SE
Lacrosse 5 rocket 2.1 03:14:00 10° NW 03:17:51 52° NE 03:21:55 10° ESE
Cosmos 2322 3.9 03:15:50 36° SW 03:18:00 59° WNW 03:23:37 10° NNE
Resurs 1-4 Rocket 2.1 03:13:59 10° NNE 03:19:17 83° ESE 03:21:44 33° S
SL-08 R/B 3.7 03:18:56 39° WSW 03:19:25 40° W 03:23:46 10° NNW
SL-16 R/B 2.5 03:15:50 24° S 03:19:46 74° WSW 03:26:03 10° NNW
Cosmos 2333 Rocket 3.2 03:16:29 21° SSE 03:19:49 40° ESE 03:25:05 10° NE
Cosmos 2184 Rocket 4.2 03:18:46 34° SW 03:21:17 56° WNW 03:27:21 10° N
CBERS 1 LM4 rocket 4.4 03:18:19 10° NNE 03:23:08 82° ESE 03:25:20 33° S
Cosmos 389 Rocket 3.3 03:22:53 31° SSE 03:24:07 46° E 03:27:36 10° NNE
Cosmos 2278 Rocket 3.5 03:21:15 10° NNW 03:26:37 41° ENE 03:31:57 10° SE
UNK 3.8 03:26:56 37° SSW 03:28:35 59° W 03:33:11 10° NNW
MOZ.5/SAFIR/RUBIN 5/SL-8 4.2 03:24:46 12° SSE 03:28:59 63° ENE 03:33:34 10° N
Cosmos 1354 Rocket 4.0 03:25:06 10° NNW 03:30:22 67° WSW 03:33:54 21° S
IRS-1C 4.4 03:25:43 10° N 03:30:55 55° WNW 03:33:14 31° SW
Cosmos 1953 Rocket 4.3 03:27:57 10° NNW 03:32:01 35° W 03:32:41 33° WSW
AQUA 4.4 03:27:35 10° N 03:32:04 42° WNW 03:33:42 31° WSW
SL-16 R/B 4.1 03:30:24 12° W 03:33:45 19° NW 03:37:40 10° N
DELTA 2 R/B (1) 3.6 03:32:19 29° WSW 03:35:02 58° S 03:40:29 10° E
ATLAS CENTAUR R/B 4.0 03:27:46 10° NW 03:35:04 36° NNE 03:38:13 10° E
Abrixas rocket 3.6 03:34:57 26° SSE 03:35:07 26° SE 03:37:56 10° E
Cosmos 1707 3.1 03:31:55 10° NNW 03:35:35 41° W 03:36:03 39° WSW
Cosmos 968 Rocket 4.4 03:30:45 10° N 03:35:47 49° ENE 03:40:45 10° SE
GENESIS II 4.2 03:32:06 10° NW 03:35:58 55° WSW 03:37:22 34° S
USA 161 4.3 03:35:00 10° ESE 03:37:08 19° ENE 03:39:13 10° NNE
Cosmos 2058 Rocket 3.5 03:36:39 34° SW 03:38:05 47° WNW 03:42:27 10° N
Meteor 1-24 Rocket 3.7 03:33:12 10° N 03:38:40 85° E 03:44:12 10° S
USA 234 3.4 03:33:01 10° NE 03:39:30 68° NW 03:44:08 20° WSW
Cosmos 2322 Rocket 4.2 03:36:23 10° W 03:40:01 17° NW 03:43:41 10° N
Lacrosse 5 3.7 03:39:26 13° SSE 03:42:32 22° ESE 03:46:22 10° ENE
Cosmos 1812 Rocket 4.0 03:40:14 19° SSE 03:43:10 58° E 03:47:27 10° NNE
NOSS 0 Rocket 4.5 03:38:58 18° S 03:43:27 53° ESE 03:49:28 10° NE
ADEOS Rocket 3.7 03:38:01 10° N 03:43:37 37° WNW 03:46:32 23° WSW
SL-16 R/B 4.4 03:41:25 10° SE 03:45:13 19° E 03:49:01 10° ENE
CZ-2D R/B 3.8 03:41:56 10° NNE 03:46:13 62° E 03:48:59 20° S
Meteor 2-5 Rocket 4.0 03:40:52 10° NNW 03:46:21 52° W 03:49:55 22° SSW
Cosmos 2333 4.3 03:44:12 27° SW 03:47:22 68° WNW 03:53:03 10° NNE
Nadezhda 3 Rocket 4.0 03:41:36 10° NNW 03:47:46 63° W 03:52:38 17° S
ERBS 3.2 03:48:58 29° S 03:50:09 41° SE 03:53:25 10° ENE
SL-8 Rocket 4.4 03:44:40 10° S 03:50:51 64° E 03:57:06 10° NNE
Cosmos 1766 3.2 03:49:22 28° SSW 03:51:21 83° W 03:55:19 10° N
Cosmos 962 Rocket 4.4 03:47:03 20° SSW 03:51:27 80° W 03:57:37 10° N
Cosmos 1844 3.6 03:47:15 10° NNW 03:52:50 69° WSW 03:58:26 10° SSE
H-2A R/B 4.3 03:27:18 10° W 03:52:53 35° SW 03:58:41 10° SSE
CZ-2D R/B 2.5 03:47:44 10° N 03:53:04 52° WNW 03:56:15 23° SW
BREEZE-M DEB (TANK) 4.1 03:56:16 23° SSW 03:59:19 63° SE 04:17:02 10° ENE
IRS-1D 4.1 03:57:57 10° N 04:02:35 41° WNW 04:05:27 21° SW
Okean O Rocket 3.8 03:59:52 10° NE 04:03:27 23° E 04:07:00 10° SSE
Cosmos 1184 Rocket 4.2 04:00:59 10° NW 04:03:35 21° W 04:03:38 21° W
OPS 6432 4.2 04:03:04 29° SW 04:04:39 83° NW 04:07:42 10° NE
MOS 1 Rocket 3.4 04:01:00 10° N 04:05:20 50° WNW 04:07:52 22° SW
OAO 3 Rocket 4.3 04:06:15 22° SW 04:07:28 24° SSW 04:11:22 10° SE
ADEOS 4.1 04:07:10 10° N 04:12:07 44° WNW 04:15:41 18° SW
ATLAS 2AS CENTAUR R/B 3.7 04:08:37 15° WSW 04:14:59 48° NW 04:22:52 10° NNE
Cosmos 1544 3.3 04:15:09 20° SSW 04:17:31 53° W 04:21:11 10° N
In-Cosmos 22 4.2 04:12:59 10° NNW 04:18:12 57° W 04:23:20 10° S
Cosmos 1727 Rocket 4.3 04:14:13 10° N 04:20:25 69° E 04:26:32 10° SSE
Cosmos 1805 3.2 04:17:43 16° SSW 04:20:47 67° W 04:24:42 10° N
Timation 1 Rocket 4.3 04:15:40 10° NNW 04:21:39 78° WSW 04:27:37 10° SSE
ARIANE 5 R/B 3.5 04:18:07 10° N 04:22:38 32° WNW 04:26:12 15° WSW
NOSS 3-4 (A) 3.9 04:16:49 12° SSW 04:22:39 59° ESE 04:29:01 10° NE
NOSS 3-4 (C) 4.0 04:16:53 11° SSW 04:22:44 58° ESE 04:29:05 10° NE
Cosmos 1271 Rocket 4.4 04:23:45 15° WSW 04:25:38 20° WNW 04:28:39 10° NNW
Cosmos 2360 Rocket 4.1 04:26:07 10° W 04:29:38 17° NW 04:33:11 10° N
Cosmos 2219 Rocket 2.7 04:25:56 15° SW 04:30:26 47° WNW 04:35:56 10° NNE
Cosmos 2366 rocket 4.0 04:26:41 10° S 04:32:51 84° W 04:39:09 10° N
Tiangong 1 2.4 04:31:28 15° SSW 04:32:57 22° SSE 04:35:12 10° E
Cosmos 1340 Rocket 4.4 04:30:28 10° NW 04:33:13 18° W 04:34:59 14° WSW
Cosmos 1339 Rocket 4.5 04:28:58 10° N 04:35:05 87° E 04:41:10 10° S
Cosmos 1844 Rocket 3.8 04:31:09 10° NW 04:35:34 24° WSW 04:39:58 10° SSW
ATLAS 3B R/B 3.2 04:30:47 10° NW 04:36:35 32° WSW 04:42:12 10° S
Cosmos 1980 3.8 04:33:22 12° SW 04:38:36 66° WNW 04:44:17 10° NNE
Cosmos 2237 Rocket 2.3 04:34:01 12° SSW 04:39:19 70° WNW 04:44:57 10° NNE
SeaSat 1 2.9 04:36:32 10° SE 04:41:26 68° ENE 04:46:21 10° NNW
UNKNOWN OBJECT B 4.1 04:39:21 10° NNW 04:42:33 25° WNW 04:45:33 11° WSW
Meteor 1-21 Rocket 4.3 04:36:52 10° NNW 04:42:40 77° W 04:48:31 10° S
Aureole 2 Rocket 4.5 04:43:07 10° WSW 04:46:06 20° WNW 04:49:06 10° N
COSMOS 2428 4.1 04:41:33 10° WSW 04:46:12 25° NW 04:50:52 10° N
BREEZE-M DEB (TANK) 2.6 04:43:16 10° WSW 04:46:14 84° NNW 04:53:03 10° ENE
CZ-4B R/B 3.9 04:42:53 10° NNE 04:48:29 57° E 04:53:57 10° S
ADEOS II 2.1 04:45:57 10° NNE 04:51:15 83° WNW 04:56:30 10° SSW
MOS 1-B 4.5 04:48:50 10° N 04:54:35 65° WNW 05:00:19 10° SSW
Lacrosse 5 rocket 2.5 04:53:38 10° WNW 04:56:51 23° SW 05:00:12 10° S
Cosmos 1777 Rocket 4.0 04:51:47 10° NNW 04:57:01 70° WSW 05:02:13 10° S
Cosmos 2218 Rocket 4.4 04:51:37 10° SSW 04:57:42 49° WNW 05:03:53 10° N
Cosmos-2242 3.3 04:53:59 10° S 04:58:13 73° E 05:02:32 10° NNE
Resurs 1-4 Rocket 4.0 04:55:34 10° NNW 04:58:25 15° WNW 05:01:15 10° W
PAYLOAD B 4.5 04:53:14 10° NNE 04:58:53 78° ESE 05:04:28 10° S
Cosmos 482 Debris 3.3 04:59:18 10° SW 05:01:16 56° SE 05:04:04 10° ENE
BREEZE-M DEB (TANK) 4.4 04:56:26 10° WNW 05:01:27 80° SSW 05:23:05 10° SE
Cosmos 2333 Rocket 3.2 04:59:02 10° WSW 05:04:08 33° NW 05:09:16 10° N
SL-16 R/B 4.3 05:02:45 10° W 05:04:23 11° W 05:06:01 10° WNW
